Location: Berg
(47.2344°N, 9.5296°E)
Time: 21:42:58
(UTC+00:00)

Cosmos 1825 Rocket - Pass Details

Date: 24 January 2021
Orbit: 604 x 630 km, 82.5° (Epoch: 04 March)

Event Time Altitude Azimuth Distance (km) Brightness Sun altitude
Rises 18:12:45 0° 176° (S) 2,865 7.0 -20.3°
Reaches altitude 10° 18:14:58 10° 172° (S) 1,969 6.1 -20.7°
Enters shadow 18:18:31 48° 132° (SE) 806 3.8 -21.3°
